Location: Newark
(54.2500°N, 9.1833°E)
Time: 07:20:23
(UTC+00:00)

Tiros 1 - Visible Passes

Search period start: 14 December 2019 00:00
Search period end: 24 December 2019 00:00
Orbit: 630 x 664 km, 48.4° (Epoch: 13 December)

Date Brightness Start Highest point End Pass type
(mag) Time Alt. Az. Time Alt. Az. Time Alt. Az.
14 Dec 9.4 04:08:13 15° SSE 04:09:32 17° SSE 04:12:34 10° ESE visible
14 Dec 8.5 05:46:35 10° SW 05:50:52 35° SSE 05:55:08 10° E visible
15 Dec 8.9 04:33:35 22° S 04:35:08 26° SSE 04:39:01 10° E visible
15 Dec 8.3 06:12:15 10° WSW 06:16:40 41° S 06:21:03 10° ESE visible
16 Dec 9.8 03:21:08 14° ESE 03:21:08 14° ESE 03:22:28 10° ESE visible
16 Dec 8.4 04:58:48 24° SSW 05:00:51 34° SSE 05:05:07 10° E visible
16 Dec 8.3 06:38:06 10° WSW 06:42:31 40° S 06:46:53 10° ESE visible
17 Dec 9.2 03:46:16 23° SE 03:46:16 23° SE 03:48:58 10° E visible
17 Dec 8.1 05:23:57 21° SW 05:26:39 40° S 05:31:03 10° ESE visible
18 Dec 8.5 04:11:20 33° SSE 04:11:20 33° SSE 04:15:05 10° E visible
18 Dec 8.1 05:49:00 15° WSW 05:52:30 41° S 05:56:53 10° ESE visible
19 Dec 10.2 02:58:41 11° ESE 02:58:41 11° ESE 02:58:55 10° E visible
19 Dec 8.0 04:36:21 40° S 04:36:38 40° S 04:41:02 10° ESE visible
19 Dec 8.3 06:14:01 10° W 06:18:18 35° SSW 06:22:34 10° SE visible
20 Dec 9.6 03:23:40 18° ESE 03:23:40 18° ESE 03:25:04 10° E visible
20 Dec 8.0 05:01:20 35° SW 05:02:28 41° S 05:06:54 10° ESE visible
20 Dec 8.7 06:40:05 10° W 06:44:02 27° SSW 06:47:56 10° SSE visible
21 Dec 9.0 03:48:37 26° ESE 03:48:37 26° ESE 03:51:01 10° ESE visible
21 Dec 8.2 05:26:17 25° WSW 05:28:18 36° SSW 05:32:35 10° SE visible
22 Dec 8.4 04:13:34 35° SSE 04:13:34 35° SSE 04:16:53 10° ESE visible
22 Dec 8.5 05:51:14 16° WSW 05:54:02 28° SSW 05:58:00 10° SE visible
23 Dec 10.2 03:00:52 11° ESE 03:00:52 11° ESE 03:01:00 10° ESE visible
23 Dec 8.1 04:38:32 37° S 04:38:32 37° S 04:42:36 10° SE visible
23 Dec 9.0 06:16:21 10° WSW 06:19:40 19° SSW 06:22:56 10° SSE visible
